Satellite-Ground Cal/Val Site Overpasses Predictions

Prediction of Satellite NPP Overpassing Cal/Val Site: Antarctic Dome C

Ground Cal/Val Site Location: Latitude: -75.10, Longitude: 123.35; Satellite-Ground Site NADIR distance within 100 km.

Table of predicted overpasses for the next 14.0 days since TLE Epoch: 2/26/2012
Interval Starting Time Ending Time Minimum Distance Time Minimum Distance (km)
1 02/27/2012 15:06:57 02/27/2012 15:07:05 02/27/2012 15:07:01 94.66
2 02/28/2012 14:47:56 02/28/2012 14:48:25 02/28/2012 14:48:11 16.63
3 03/01/2012 07:30:46 03/01/2012 07:31:15 03/01/2012 07:31:00 3.44
4 03/04/2012 14:54:13 03/04/2012 14:54:42 03/04/2012 14:54:28 20.29
5 03/05/2012 14:35:31 03/05/2012 14:35:45 03/05/2012 14:35:38 86.81
6 03/06/2012 07:37:03 03/06/2012 07:37:30 03/06/2012 07:37:17 39.22
7 03/07/2012 07:18:17 03/07/2012 07:18:38 03/07/2012 07:18:27 70.75
8 03/09/2012 15:00:32 03/09/2012 15:00:56 03/09/2012 15:00:44 57.48
9 03/10/2012 14:41:41 03/10/2012 14:42:06 03/10/2012 14:41:54 51.79
